STARLINK-2439 (48104 NORAD) Tracking and Keplerian Element Data

This shows tracking and keplerian element data for the satellite.

Feedback or suggestion? Click here.




ElementValue
Catalog48104
NameSTARLINK-2439
Epoch Orbit197
Epoch Day173.91668981
Epoch Year2021
RAAN323.2359
Inclination53.0463
Eccentricity0.0001355
Argument of Perigee51.7369
Mean Anonmoly334.6341
Mean Motion15.4207122
Decay Rate-0.01087257
L11 48104U 21027N 21173.91668981 -.01087257 00000-0 -27299-1 0 9993
L22 48104 53.0463 323.2359 0001355 51.7369 334.6341 15.42071220 1977

Live tracking and technical data element details for STARLINK-2439 (NORAD 48104). STARLINK-2439 can be tracked NOW for your location showing map with azimuth and elevation plus other details from your city location.

Track the satellite on the map from your city or location and see movement details for azimuth, elevation, latitude, longitude, range, height, and movement on the map or in text.







IsCatalogInMostPopularTable: catalog: 48104, numindb: 36
Update: records affected: 1



GetName: 48104 STARLINK-2439

Hit Count: updated at: Thu, 24 Jun 2021 04:20:11 GMT